Location: Newark
(45.7425°N, 0.7617°W)
Time: 11:20:05
(UTC+00:00)

Oscar 11 - Visible Passes

Search period start: 29 March 2020 00:00
Search period end: 08 April 2020 00:00
Orbit: 612 x 626 km, 97.6° (Epoch: 28 March)

Date Brightness Start Highest point End Pass type
(mag) Time Alt. Az. Time Alt. Az. Time Alt. Az.
01 Apr 9.9 18:57:39 10° SSW 19:01:05 23° W 19:04:32 10° NW visible
02 Apr 10.2 19:15:43 10° SW 19:18:18 16° W 19:20:55 10° NW visible
03 Apr 10.8 19:35:03 10° W 19:35:35 10° W 19:36:07 10° W visible
